Time,TemperatureF,DewpointF,PressureIn,WindDirection,WindDirectionDegrees,WindSpeedMPH,WindSpeedGustMPH,Humidity,HourlyPrecipIn,Conditions,Clouds,dailyrainin,SoftwareType,DateUTC
2013-05-24 00:02:00,47.0,41.0,-100.00,East,95,4.0,6.0,77,0.00,,,-99.99,,2013-05-24 05:02:00,
2013-05-24 00:12:00,48.0,41.0,-100.00,ENE,75,6.0,7.0,78,0.00,,,-99.99,,2013-05-24 05:12:00,
2013-05-24 00:22:00,48.0,41.0,-100.00,East,80,7.0,7.0,78,0.00,,,-99.99,,2013-05-24 05:22:00,
2013-05-24 00:32:00,46.0,40.0,-100.00,East,100,5.0,6.0,79,0.00,,,-99.99,,2013-05-24 05:32:00,
2013-05-24 00:42:00,46.0,40.0,-100.00,East,100,6.0,6.0,80,0.00,,,-99.99,,2013-05-24 05:42:00,
2013-05-24 00:52:00,46.0,40.0,-100.00,East,95,4.0,6.0,80,0.00,,,-99.99,,2013-05-24 05:52:00,
2013-05-24 01:02:00,46.0,40.0,-100.00,East,95,4.0,6.0,80,0.00,,,-99.99,,2013-05-24 06:02:00,
2013-05-24 01:12:00,45.0,40.0,-100.00,East,95,6.0,6.0,81,0.00,,,-99.99,,2013-05-24 06:12:00,
2013-05-24 01:21:00,45.0,40.0,-100.00,East,90,7.0,7.0,82,0.00,,,-99.99,,2013-05-24 06:21:00,
2013-05-24 01:32:00,45.0,40.0,-100.00,East,85,6.0,6.0,83,0.00,,,-99.99,,2013-05-24 06:32:00,
2013-05-24 01:42:00,45.0,40.0,-100.00,East,85,6.0,6.0,83,0.00,,,-99.99,,2013-05-24 06:42:00,
2013-05-24 01:52:00,45.0,40.0,-100.00,East,85,6.0,6.0,83,0.00,,,-99.99,,2013-05-24 06:52:00,
2013-05-24 02:01:00,44.0,40.0,-100.00,East,85,7.0,7.0,85,0.00,,,-99.99,,2013-05-24 07:01:00,
2013-05-24 02:11:00,44.0,40.0,-100.00,East,80,7.0,7.0,85,0.00,,,-99.99,,2013-05-24 07:11:00,
2013-05-24 02:22:00,43.0,40.0,-100.00,East,90,6.0,7.0,86,0.00,,,-99.99,,2013-05-24 07:22:00,
2013-05-24 02:32:00,44.0,40.0,-100.00,East,100,6.0,7.0,87,0.00,,,-99.99,,2013-05-24 07:32:00,
2013-05-24 02:42:00,44.0,40.0,-100.00,East,95,6.0,7.0,87,0.00,,,-99.99,,2013-05-24 07:42:00,
2013-05-24 02:52:00,44.0,40.0,-100.00,East,100,6.0,6.0,87,0.00,,,-99.99,,2013-05-24 07:52:00,
2013-05-24 03:02:00,44.0,40.0,-100.00,East,100,6.0,7.0,87,0.00,,,-99.99,,2013-05-24 08:02:00,
2013-05-24 03:11:00,44.0,40.0,-100.00,East,100,6.0,7.0,87,0.00,,,-99.99,,2013-05-24 08:11:00,
2013-05-24 03:22:00,43.0,40.0,-100.00,ESE,105,4.0,6.0,87,0.00,,,-99.99,,2013-05-24 08:22:00,
2013-05-24 03:32:00,42.0,39.0,-100.00,ESE,110,4.0,6.0,87,0.00,,,-99.99,,2013-05-24 08:32:00,
2013-05-24 03:42:00,42.0,39.0,-100.00,ESE,110,4.0,6.0,87,0.00,,,-99.99,,2013-05-24 08:42:00,
2013-05-24 03:52:00,43.0,39.0,-100.00,ESE,105,7.0,9.0,87,0.00,,,-99.99,,2013-05-24 08:52:00,
2013-05-24 04:01:00,43.0,40.0,-100.00,ESE,105,6.0,7.0,87,0.00,,,-99.99,,2013-05-24 09:01:00,
2013-05-24 04:11:00,43.0,40.0,-100.00,ESE,105,6.0,8.0,87,0.00,,,-99.99,,2013-05-24 09:11:00,
2013-05-24 04:21:00,43.0,40.0,-100.00,ESE,105,6.0,7.0,87,0.00,,,-99.99,,2013-05-24 09:21:00,
2013-05-24 04:32:00,44.0,40.0,-100.00,ESE,110,8.0,9.0,87,0.00,,,-99.99,,2013-05-24 09:32:00,
2013-05-24 04:42:00,44.0,40.0,-100.00,ESE,115,8.0,9.0,86,0.00,,,-99.99,,2013-05-24 09:42:00,
2013-05-24 04:52:00,42.0,39.0,-100.00,ESE,110,7.0,9.0,86,0.00,,,-99.99,,2013-05-24 09:52:00,
2013-05-24 05:03:00,42.0,38.0,-100.00,ESE,120,6.0,7.0,86,0.00,,,-99.99,,2013-05-24 10:03:00,
2013-05-24 05:12:00,42.0,39.0,-100.00,ESE,115,7.0,8.0,86,0.00,,,-99.99,,2013-05-24 10:12:00,
2013-05-24 05:22:00,42.0,38.0,-100.00,ESE,115,7.0,9.0,86,0.00,,,-99.99,,2013-05-24 10:22:00,
2013-05-24 05:32:00,42.0,38.0,-100.00,ESE,115,7.0,7.0,86,0.00,,,-99.99,,2013-05-24 10:32:00,
2013-05-24 05:42:00,42.0,38.0,-100.00,ESE,115,9.0,9.0,87,0.00,,,-99.99,,2013-05-24 10:42:00,
2013-05-24 05:52:00,42.0,38.0,-100.00,ESE,120,9.0,10.0,87,0.00,,,-99.99,,2013-05-24 10:52:00,
2013-05-24 06:02:00,42.0,38.0,-100.00,SE,130,7.0,9.0,87,0.00,,,-99.99,,2013-05-24 11:02:00,
2013-05-24 06:12:00,41.0,38.0,-100.00,SE,140,5.0,9.0,87,0.00,,,-99.99,,2013-05-24 11:12:00,
2013-05-24 06:22:00,41.0,37.0,-100.00,SE,130,6.0,6.0,87,0.00,,,-99.99,,2013-05-24 11:22:00,
2013-05-24 06:32:00,41.0,38.0,-100.00,ESE,120,6.0,7.0,87,0.00,,,-99.99,,2013-05-24 11:32:00,
2013-05-24 06:42:00,42.0,39.0,-100.00,SE,145,6.0,7.0,87,0.00,,,-99.99,,2013-05-24 11:42:00,
2013-05-24 06:51:00,43.0,40.0,-100.00,SSE,150,4.0,6.0,87,0.00,,,-99.99,,2013-05-24 11:51:00,
2013-05-24 07:02:00,44.0,41.0,-100.00,SE,145,6.0,7.0,87,0.00,,,-99.99,,2013-05-24 12:02:00,
2013-05-24 07:11:00,45.0,42.0,-100.00,SE,135,5.0,6.0,87,0.00,,,-99.99,,2013-05-24 12:11:00,
2013-05-24 07:21:00,46.0,41.0,-100.00,SE,125,6.0,8.0,83,0.00,,,-99.99,,2013-05-24 12:21:00,
2013-05-24 07:32:00,46.0,41.0,-100.00,SE,125,6.0,8.0,83,0.00,,,-99.99,,2013-05-24 12:32:00,
2013-05-24 07:42:00,46.0,41.0,-100.00,SE,125,6.0,8.0,83,0.00,,,-99.99,,2013-05-24 12:42:00,
2013-05-24 07:52:00,49.0,41.0,-100.00,ESE,120,7.0,10.0,75,0.00,,,-99.99,,2013-05-24 12:52:00,
2013-05-24 08:02:00,50.0,41.0,-100.00,SE,135,11.0,14.0,71,0.00,,,-99.99,,2013-05-24 13:02:00,
2013-05-24 08:11:00,51.0,41.0,-100.00,SE,145,11.0,13.0,69,0.00,,,-99.99,,2013-05-24 13:11:00,
2013-05-24 08:21:00,52.0,42.0,-100.00,SE,145,11.0,15.0,67,0.00,,,-99.99,,2013-05-24 13:21:00,
2013-05-24 08:32:00,53.0,41.0,-100.00,SE,140,17.0,22.0,62,0.00,,,-99.99,,2013-05-24 13:32:00,
2013-05-24 08:42:00,54.0,41.0,-100.00,SE,140,14.0,18.0,61,0.00,,,-99.99,,2013-05-24 13:42:00,
2013-05-24 08:52:00,56.0,41.0,-100.00,SSE,150,18.0,22.0,57,0.00,,,-99.99,,2013-05-24 13:52:00,
2013-05-24 09:01:00,56.0,41.0,-100.00,SSE,150,18.0,22.0,57,0.00,,,-99.99,,2013-05-24 14:01:00,
2013-05-24 09:11:00,57.0,41.0,-100.00,SE,145,18.0,23.0,56,0.00,,,-99.99,,2013-05-24 14:11:00,
2013-05-24 09:21:00,58.0,42.0,-100.00,SSE,165,17.0,22.0,55,0.00,,,-99.99,,2013-05-24 14:21:00,
2013-05-24 09:32:00,58.0,42.0,-100.00,SSE,165,17.0,22.0,55,0.00,,,-99.99,,2013-05-24 14:32:00,
2013-05-24 09:42:00,59.0,43.0,-100.00,SSE,165,18.0,24.0,53,0.00,,,-99.99,,2013-05-24 14:42:00,
2013-05-24 09:52:00,60.0,42.0,-100.00,SSE,160,20.0,26.0,51,0.00,,,-99.99,,2013-05-24 14:52:00,
2013-05-24 10:02:00,60.0,42.0,-100.00,SSE,160,20.0,26.0,51,0.00,,,-99.99,,2013-05-24 15:02:00,
2013-05-24 10:11:00,61.0,43.0,-100.00,SSE,150,19.0,25.0,50,0.00,,,-99.99,,2013-05-24 15:11:00,
2013-05-24 10:21:00,62.0,43.0,-100.00,SSE,160,21.0,24.0,49,0.00,,,-99.99,,2013-05-24 15:21:00,
2013-05-24 10:32:00,63.0,43.0,-100.00,SSE,150,17.0,25.0,48,0.00,,,-99.99,,2013-05-24 15:32:00,
2013-05-24 10:43:00,63.0,43.0,-100.00,SSE,150,17.0,25.0,48,0.00,,,-99.99,,2013-05-24 15:43:00,
2013-05-24 10:52:00,64.0,42.0,-100.00,SSE,160,19.0,24.0,45,0.00,,,-99.99,,2013-05-24 15:52:00,
2013-05-24 11:03:00,64.0,42.0,-100.00,SSE,155,20.0,26.0,44,0.00,,,-99.99,,2013-05-24 16:03:00,
2013-05-24 11:12:00,64.0,42.0,-100.00,SSE,155,20.0,26.0,44,0.00,,,-99.99,,2013-05-24 16:12:00,
2013-05-24 11:22:00,64.0,42.0,-100.00,SSE,155,20.0,26.0,44,0.00,,,-99.99,,2013-05-24 16:22:00,
2013-05-24 11:32:00,66.0,43.0,-100.00,SSE,165,18.0,26.0,42,0.00,,,-99.99,,2013-05-24 16:32:00,
2013-05-24 11:42:00,66.0,43.0,-100.00,SE,145,19.0,24.0,42,0.00,,,-99.99,,2013-05-24 16:42:00,
2013-05-24 11:52:00,67.0,43.0,-100.00,SSE,160,19.0,24.0,41,0.00,,,-99.99,,2013-05-24 16:52:00,
2013-05-24 12:02:00,67.0,43.0,-100.00,SSE,165,17.0,27.0,41,0.00,,,-99.99,,2013-05-24 17:02:00,
2013-05-24 12:12:00,67.0,43.0,-100.00,SSE,165,17.0,27.0,41,0.00,,,-99.99,,2013-05-24 17:12:00,
2013-05-24 12:22:00,68.0,43.0,-100.00,SSE,160,16.0,27.0,40,0.00,,,-99.99,,2013-05-24 17:22:00,
2013-05-24 12:32:00,69.0,42.0,-100.00,SSE,160,22.0,29.0,38,0.00,,,-99.99,,2013-05-24 17:32:00,
2013-05-24 12:42:00,69.0,42.0,-100.00,SSE,160,22.0,29.0,38,0.00,,,-99.99,,2013-05-24 17:42:00,
2013-05-24 12:52:00,70.0,42.0,-100.00,SSE,160,23.0,28.0,37,0.00,,,-99.99,,2013-05-24 17:52:00,
2013-05-24 13:01:00,70.0,42.0,-100.00,SSE,160,23.0,28.0,37,0.00,,,-99.99,,2013-05-24 18:01:00,
2013-05-24 13:11:00,69.0,42.0,-100.00,SSE,160,23.0,28.0,36,0.00,,,-99.99,,2013-05-24 18:11:00,
2013-05-24 13:21:00,70.0,42.0,-100.00,South,175,19.0,27.0,36,0.00,,,-99.99,,2013-05-24 18:21:00,
2013-05-24 13:32:00,71.0,43.0,-100.00,SSE,150,20.0,29.0,36,0.00,,,-99.99,,2013-05-24 18:32:00,
2013-05-24 13:41:00,71.0,43.0,-100.00,SSE,150,20.0,29.0,36,0.00,,,-99.99,,2013-05-24 18:41:00,
2013-05-24 13:51:00,71.0,42.0,-100.00,South,170,21.0,29.0,35,0.00,,,-99.99,,2013-05-24 18:51:00,
2013-05-24 14:01:00,71.0,42.0,-100.00,South,170,21.0,29.0,35,0.00,,,-99.99,,2013-05-24 19:01:00,
2013-05-24 14:11:00,71.0,43.0,-100.00,SSE,165,22.0,29.0,35,0.00,,,-99.99,,2013-05-24 19:11:00,
2013-05-24 14:21:00,71.0,42.0,-100.00,South,170,24.0,29.0,35,0.00,,,-99.99,,2013-05-24 19:21:00,
2013-05-24 14:32:00,72.0,44.0,-100.00,South,185,20.0,27.0,36,0.00,,,-99.99,,2013-05-24 19:32:00,
2013-05-24 14:41:00,72.0,44.0,-100.00,South,185,20.0,27.0,36,0.00,,,-99.99,,2013-05-24 19:41:00,
2013-05-24 14:52:00,72.0,44.0,-100.00,SSE,165,21.0,29.0,36,0.00,,,-99.99,,2013-05-24 19:52:00,
2013-05-24 15:02:00,72.0,44.0,-100.00,SSE,165,21.0,29.0,36,0.00,,,-99.99,,2013-05-24 20:02:00,
2013-05-24 15:11:00,72.0,44.0,-100.00,SSE,165,21.0,29.0,36,0.00,,,-99.99,,2013-05-24 20:11:00,
2013-05-24 15:21:00,72.0,44.0,-100.00,South,175,26.0,32.0,36,0.00,,,-99.99,,2013-05-24 20:21:00,
2013-05-24 15:32:00,73.0,45.0,-100.00,South,175,22.0,33.0,36,0.00,,,-99.99,,2013-05-24 20:32:00,
2013-05-24 15:41:00,73.0,45.0,-100.00,South,175,22.0,33.0,36,0.00,,,-99.99,,2013-05-24 20:41:00,
2013-05-24 15:52:00,73.0,45.0,-100.00,SSE,160,24.0,32.0,36,0.00,,,-99.99,,2013-05-24 20:52:00,
2013-05-24 16:01:00,73.0,45.0,-100.00,SSE,160,24.0,32.0,36,0.00,,,-99.99,,2013-05-24 21:01:00,
2013-05-24 16:11:00,73.0,45.0,-100.00,South,170,25.0,32.0,36,0.00,,,-99.99,,2013-05-24 21:11:00,
2013-05-24 16:21:00,73.0,45.0,-100.00,South,170,25.0,32.0,36,0.00,,,-99.99,,2013-05-24 21:21:00,
2013-05-24 16:32:00,72.0,45.0,-100.00,South,185,21.0,30.0,37,0.00,,,-99.99,,2013-05-24 21:32:00,
2013-05-24 16:42:00,72.0,45.0,-100.00,South,185,21.0,30.0,37,0.00,,,-99.99,,2013-05-24 21:42:00,
2013-05-24 16:52:00,72.0,45.0,-100.00,SSE,165,21.0,29.0,38,0.00,,,-99.99,,2013-05-24 21:52:00,
2013-05-24 17:02:00,72.0,45.0,-100.00,SSE,165,21.0,29.0,38,0.00,,,-99.99,,2013-05-24 22:02:00,
2013-05-24 17:12:00,71.0,45.0,-100.00,South,185,20.0,26.0,39,0.00,,,-99.99,,2013-05-24 22:12:00,
2013-05-24 17:22:00,71.0,45.0,-100.00,South,170,23.0,28.0,39,0.00,,,-99.99,,2013-05-24 22:22:00,
2013-05-24 17:33:00,69.0,45.0,-100.00,SSE,165,26.0,32.0,41,0.25,,,-99.99,,2013-05-24 22:33:00,
2013-05-24 17:42:00,69.0,45.0,-100.00,SSE,165,26.0,32.0,41,0.25,,,-99.99,,2013-05-24 22:42:00,
2013-05-24 17:52:00,68.0,46.0,-100.00,South,180,18.0,26.0,44,0.00,,,-99.99,,2013-05-24 22:52:00,
2013-05-24 18:02:00,68.0,46.0,-100.00,South,180,18.0,26.0,44,0.00,,,-99.99,,2013-05-24 23:02:00,
2013-05-24 18:11:00,68.0,47.0,-100.00,SSE,165,15.0,23.0,46,0.00,,,-99.99,,2013-05-24 23:11:00,
2013-05-24 18:22:00,67.0,48.0,-100.00,SSE,165,12.0,19.0,49,0.31,,,-99.99,,2013-05-24 23:22:00,
2013-05-24 18:32:00,66.0,52.0,-100.00,ESE,120,7.0,9.0,61,0.00,,,-99.99,,2013-05-24 23:32:00,
2013-05-24 18:42:00,66.0,52.0,-100.00,ESE,120,7.0,9.0,61,0.00,,,-99.99,,2013-05-24 23:42:00,
2013-05-24 18:52:00,66.0,52.0,-100.00,SE,125,15.0,17.0,59,0.00,,,-99.99,,2013-05-24 23:52:00,
2013-05-24 19:01:00,66.0,52.0,-100.00,SE,125,15.0,17.0,59,0.00,,,-99.99,,2013-05-25 00:01:00,
2013-05-24 19:11:00,66.0,51.0,-100.00,ESE,120,14.0,17.0,58,0.00,,,-99.99,,2013-05-25 00:11:00,
2013-05-24 19:21:00,66.0,51.0,-100.00,ESE,115,16.0,20.0,58,0.00,,,-99.99,,2013-05-25 00:21:00,
2013-05-24 19:32:00,66.0,50.0,-100.00,SE,125,17.0,21.0,57,0.00,,,-99.99,,2013-05-25 00:32:00,
2013-05-24 19:41:00,66.0,50.0,-100.00,SE,125,17.0,21.0,57,0.00,,,-99.99,,2013-05-25 00:41:00,
2013-05-24 19:51:00,66.0,50.0,-100.00,ESE,120,17.0,21.0,56,0.00,,,-99.99,,2013-05-25 00:51:00,
2013-05-24 20:01:00,66.0,50.0,-100.00,SE,125,17.0,23.0,56,0.00,,,-99.99,,2013-05-25 01:01:00,
2013-05-24 20:11:00,65.0,49.0,-100.00,SE,125,17.0,23.0,56,0.00,,,-99.99,,2013-05-25 01:11:00,
2013-05-24 20:22:00,65.0,49.0,-100.00,SE,125,17.0,25.0,55,0.00,,,-99.99,,2013-05-25 01:22:00,
2013-05-24 20:32:00,65.0,49.0,-100.00,SE,130,16.0,20.0,55,0.00,,,-99.99,,2013-05-25 01:32:00,
2013-05-24 20:41:00,65.0,49.0,-100.00,SE,130,16.0,20.0,55,0.00,,,-99.99,,2013-05-25 01:41:00,
2013-05-24 20:52:00,64.0,49.0,-100.00,SE,130,14.0,17.0,58,0.00,,,-99.99,,2013-05-25 01:52:00,
2013-05-24 21:01:00,64.0,49.0,-100.00,SE,130,14.0,17.0,58,0.00,,,-99.99,,2013-05-25 02:01:00,
2013-05-24 21:11:00,64.0,50.0,-100.00,SE,125,15.0,20.0,59,0.00,,,-99.99,,2013-05-25 02:11:00,
2013-05-24 21:21:00,63.0,50.0,-100.00,ESE,115,17.0,21.0,61,0.00,,,-99.99,,2013-05-25 02:21:00,
2013-05-24 21:31:00,62.0,50.0,-100.00,ESE,115,14.0,19.0,64,0.00,,,-99.99,,2013-05-25 02:31:00,
2013-05-24 21:42:00,62.0,50.0,-100.00,ESE,115,14.0,19.0,64,0.00,,,-99.99,,2013-05-25 02:42:00,
2013-05-24 21:51:00,62.0,50.0,-100.00,SE,135,16.0,21.0,66,0.00,,,-99.99,,2013-05-25 02:51:00,
2013-05-24 22:01:00,62.0,50.0,-100.00,SE,135,16.0,21.0,66,0.00,,,-99.99,,2013-05-25 03:01:00,
2013-05-24 22:11:00,62.0,50.0,-100.00,SE,135,16.0,21.0,66,0.00,,,-99.99,,2013-05-25 03:11:00,
2013-05-24 22:21:00,61.0,50.0,-100.00,SE,145,17.0,20.0,66,0.00,,,-99.99,,2013-05-25 03:21:00,
2013-05-24 22:32:00,61.0,50.0,-100.00,SE,145,16.0,18.0,67,0.00,,,-99.99,,2013-05-25 03:32:00,
2013-05-24 22:43:00,61.0,50.0,-100.00,SE,145,16.0,18.0,67,0.00,,,-99.99,,2013-05-25 03:43:00,
2013-05-24 22:53:00,61.0,50.0,-100.00,SE,140,16.0,22.0,66,0.00,,,-99.99,,2013-05-25 03:53:00,
2013-05-24 23:02:00,61.0,50.0,-100.00,SE,140,16.0,22.0,66,0.00,,,-99.99,,2013-05-25 04:02:00,
2013-05-24 23:12:00,61.0,50.0,-100.00,SE,145,17.0,21.0,66,0.00,,,-99.99,,2013-05-25 04:12:00,
2013-05-24 23:23:00,61.0,49.0,-100.00,SE,140,17.0,21.0,66,0.00,,,-99.99,,2013-05-25 04:23:00,
2013-05-24 23:33:00,60.0,49.0,-100.00,SE,145,20.0,23.0,66,0.00,,,-99.99,,2013-05-25 04:33:00,
2013-05-24 23:43:00,60.0,49.0,-100.00,SE,145,20.0,23.0,66,0.00,,,-99.99,,2013-05-25 04:43:00,
2013-05-24 23:52:00,60.0,49.0,-100.00,SE,140,17.0,24.0,66,0.00,,,-99.99,,2013-05-25 04:52:00,